Temperature
13 13 14 14 15 15 16 16 16 17 17 17 17 17 17 17 17 16 17 16 17 17 17 17 17 17 17 17 17 17 17 16 16 16 16 16 16 16
12 12 13 13 14 14 15 15 15 16 16 17 17 16 16 16 16 16 16 16 16 16 16 16 16 17 17 17 17 16 16 16 16 16 16 16 16 16
11 12 12 12 13 13 14 14 15 15 15 16 16 16 16 16 16 15 15 15 15 15 16 16 16 16 16 16 16 16 16 16 16 16 16 16 16 16
11 11 11 11 12 12 13 13 14 14 14 15 15 15 15 15 15 15 15 15 15 15 15 15 15 15 16 16 16 16 16 16 16 16 16 16 16 16
11 11 11 11 11 12 12 12 13 13 14 14 14 14 15 15 14 14 14 14 14 14 14 15 15 15 15 15 15 15 16 16 16 16 16 16 16 16
11 11 11 10 11 11 11 11 12 12 13 13 13 14 14 14 14 14 13 13 13 13 14 14 14 14 14 14 15 15 15 15 15 15 15 15 15 15
10 10 10 10 10 10 11 11 11 11 12 12 12 13 13 13 13 14 13 13 13 13 13 13 13 13 14 14 14 14 14 14 14 14 14 15 15 15
10 10 10 10 10 10 10 10 10 11 11 11 12 12 13 13 13 13 13 12 12 12 12 12 12 13 13 13 13 13 13 13 14 14 14 14 14 14
9 9 9 10 10 10 10 10 10 10 11 11 11 12 12 13 13 13 13 13 13 13 12 11 11 12 12 12 12 13 13 13 13 13 13 13 13 13
9 9 9 10 10 10 10 10 10 10 10 11 11 12 12 12 13 13 13 12 12 12 12 11 11 11 11 12 12 12 12 12 12 12 12 12 12 12
8 9 9 9 10 10 9 10 10 10 10 10 11 11 11 11 12 12 12 12 12 11 11 11 11 11 11 11 11 11 11 12 12 12 12 12 12 12
8 8 9 9 9 9 9 9 9 10 10 10 10 11 11 11 11 12 12 12 12 11 11 11 11 11 10 10 11 11 11 11 11 11 11 11 11 11
8 8 9 9 9 9 9 9 9 9 9 10 10 10 11 11 11 11 12 12 12 12 12 11 11 11 11 10 10 10 11 11 11 11 11 11 11 11
8 8 9 9 9 9 9 9 9 9 9 9 10 10 10 11 11 11 12 12 12 13 13 12 12 11 11 11 10 10 10 10 10 10 10 10 10 10
7 8 8 9 9 9 9 9 9 9 9 9 9 10 10 11 11 11 11 11 11 11 12 12 12 12 12 12 11 11 10 9 10 10 10 10 10 9
7 7 8 8 8 9 9 9 9 9 9 9 9 10 10 11 11 11 11 11 11 11 11 11 11 11 11 11 11 10 10 10 9 9 9 9 9 9
7 7 7 8 8 8 8 9 9 9 9 9 9 10 10 10 10 11 11 11 11 11 11 11 11 11 11 11 10 10 10 9 9 9 9 9 9 9
7 7 7 8 8 8 8 8 8 8 9 9 9 9 10 10 10 10 10 11 11 11 11 10 10 10 10 10 10 10 10 9 9 9 9 8 8 9
7 7 7 8 8 8 9 9 9 9 9 9 9 9 10 10 10 10 10 10 10 10 10 10 10 10 10 10 10 10 10 9 9 9 9 9 9 9
7 7 8 8 8 8 9 9 9 9 9 9 9 9 9 9 10 10 10 10 10 10 10 10 10 10 10 10 10 10 10 10 9 9 9 9 9 9
7 7 8 8 8 9 9 9 9 9 9 9 9 9 9 9 10 10 10 10 10 10 10 10 10 10 11 11 10 10 10 10 10 10 9 9 10 10
7 7 8 8 8 9 9 9 9 9 9 9 9 9 9 9 9 10 10 10 10 10 10 10 10 10 11 11 10 10 10 10 10 10 10 10 10 10
7 7 8 8 8 8 8 9 9 9 9 9 9 9 9 9 9 9 10 10 10 10 10 10 10 10 11 11 10 10 10 10 10 10 10 10 10 10
Wind_Speed
4 4 3 4 3 3 3 2 2 3 4 3 3 6 7 10 13 10 10 9 8 7 6 6 6 6 6 6 7 9 10 12 13 15 17 17 18 20
4 4 4 3 3 3 3 3 2 3 3 3 4 6 7 9 11 11 12 12 9 9 8 8 7 7 6 5 5 5 6 7 9 11 12 14 15 16
6 6 6 5 4 3 2 2 3 3 5 3 2 5 7 9 8 10 12 10 8 9 9 9 9 8 7 6 5 4 3 3 4 5 7 8 10 12
8 7 7 6 6 4 3 3 2 2 3 4 3 5 6 8 9 8 8 10 10 10 11 11 11 10 9 8 7 6 5 3 2 2 3 4 5 7
9 9 8 8 7 6 5 5 3 3 2 3 4 4 6 8 9 7 8 7 9 11 12 11 12 12 11 10 10 9 8 7 5 4 3 2 1 1
10 9 9 9 9 8 7 7 5 4 4 4 4 4 6 8 9 9 7 6 6 8 8 10 12 13 12 11 10 10 10 10 9 9 8 7 6 5
11 10 10 10 11 9 8 7 7 6 5 5 5 5 5 9 9 8 9 7 6 6 6 6 6 6 8 9 10 11 12 12 12 12 12 12 12 11
10 10 10 10 12 12 10 9 7 7 7 6 5 6 7 7 8 9 9 8 5 6 6 5 5 5 5 7 9 11 12 13 14 14 15 16 16 16
10 10 12 13 13 11 12 13 11 11 10 7 7 6 5 6 9 11 11 10 6 8 7 5 5 6 6 9 11 12 13 14 14 15 17 18 18 18
10 11 11 10 10 10 11 11 11 11 12 10 8 7 5 5 7 8 10 8 7 8 6 4 5 5 6 7 9 11 13 14 15 16 18 20 21 20
12 12 12 11 12 12 9 9 9 9 13 14 13 11 10 9 7 6 9 10 8 7 6 4 6 6 5 4 7 10 12 14 15 16 17 18 19 18
9 10 13 14 14 14 10 9 9 8 7 9 10 10 9 9 12 10 10 11 9 6 7 6 9 6 5 4 5 7 9 10 12 12 12 10 9 11
8 8 9 15 16 17 13 8 8 7 5 6 7 8 8 8 10 10 10 10 10 5 9 8 9 7 5 6 5 6 7 7 7 6 6 6 7 9
6 6 6 12 16 17 13 10 10 7 4 5 6 7 8 9 9 10 10 9 7 7 11 9 7 8 8 7 5 7 6 7 7 5 7 7 9 12
4 4 4 8 11 11 13 12 9 6 6 6 6 7 8 9 8 8 9 8 6 7 13 8 7 8 9 6 7 8 7 6 5 5 5 4 4 6
7 5 8 9 7 8 9 8 7 7 7 7 6 6 6 7 8 8 8 9 7 5 7 10 7 9 7 8 10 10 8 7 8 6 6 4 6 9
6 6 6 6 7 7 7 9 9 9 9 7 6 5 6 7 8 9 9 9 8 9 8 6 6 6 7 9 10 9 8 7 7 7 6 6 5 6
4 6 7 8 9 9 9 9 10 9 9 8 7 6 7 8 8 8 9 10 10 9 9 8 8 6 6 5 9 10 7 7 7 7 6 6 6 5
5 7 7 8 9 9 8 9 9 9 9 8 8 7 7 8 9 10 11 11 10 11 10 9 9 9 11 9 6 10 8 7 8 6 6 5 6 7
7 8 8 8 8 8 8 8 8 8 8 8 8 8 9 8 10 11 11 12 12 11 10 9 9 9 9 9 6 6 11 10 8 7 6 4 4 7
8 8 7 7 7 7 7 7 8 7 8 8 8 9 9 9 10 11 11 14 12 11 12 11 9 10 6 8 8 6 5 8 11 7 7 5 5 5
6 6 6 6 6 6 6 6 6 6 7 8 8 9 9 10 10 11 12 13 11 11 10 8 8 7 6 9 10 9 7 5 6 10 8 5 5 6
5 5 5 5 6 5 6 7 7 6 6 7 8 8 9 10 10 10 12 12 11 11 11 9 8 6 6 8 9 9 10 8 6 5 4 7 9 9
Wind_Direction
248 254 265 279 283 285 280 263 252 230 208 195 162 148 132 126 147 142 132 133 134 137 145 160 168 172 180 192 205 215 222 228 233 235 236 236 237 239
232 238 241 258 277 273 276 272 255 246 236 197 178 157 149 142 148 133 126 126 118 120 121 125 130 135 141 151 166 186 205 219 229 234 235 237 240 242
232 230 230 233 242 261 268 271 263 251 247 235 157 143 141 135 133 132 140 133 116 115 115 112 112 113 117 119 123 134 158 196 222 232 238 242 244 244
222 226 227 228 225 223 233 246 247 243 233 228 184 164 157 148 150 156 149 131 122 118 113 109 106 103 102 103 103 102 104 112 131 188 222 237 244 248
215 218 223 223 224 219 215 221 224 236 218 225 210 183 168 162 156 148 126 124 124 127 116 109 106 102 98 96 97 96 95 94 95 96 98 102 112 270
218 215 218 220 220 217 220 215 216 220 221 228 225 197 182 172 162 151 145 143 138 135 119 119 113 102 96 93 94 96 97 96 94 92 90 87 82 74
220 216 219 220 221 216 221 207 206 207 211 217 219 213 199 178 175 167 160 148 136 141 139 140 132 114 101 92 90 95 97 97 95 94 91 88 84 81
222 216 222 223 222 212 211 205 200 209 212 208 215 216 206 194 179 170 160 157 157 164 153 143 134 115 101 92 97 100 100 99 98 97 95 92 89 85
228 221 225 226 210 207 209 210 213 218 216 208 214 220 207 196 187 178 173 173 159 158 148 135 123 105 95 96 104 105 104 103 103 102 100 96 92 88
231 221 217 231 226 209 209 210 210 215 217 217 220 220 221 207 198 187 172 159 134 150 151 135 135 118 107 101 105 111 111 110 109 108 106 102 96 90
236 228 215 218 220 209 210 215 214 218 219 218 211 211 206 205 193 175 170 165 157 164 172 137 140 126 118 114 112 114 116 117 117 116 114 110 104 95
231 234 224 213 208 201 204 210 216 220 228 216 215 216 211 205 195 190 182 175 160 163 178 151 153 147 133 133 142 139 124 121 125 125 124 122 117 110
225 224 222 208 200 197 199 204 213 219 225 223 209 209 207 206 200 196 190 183 175 167 169 159 163 164 140 145 157 164 156 155 153 145 136 133 140 135
228 228 214 197 196 194 196 198 193 200 224 228 220 211 206 204 199 193 191 188 188 168 164 161 162 168 145 147 150 163 167 172 172 165 160 140 131 140
245 227 189 178 183 194 204 193 185 201 218 227 226 220 208 201 186 180 178 169 163 164 163 165 157 159 152 152 150 160 166 174 173 162 165 164 157 148
231 210 176 170 181 193 187 195 204 215 216 222 222 223 204 185 180 171 169 161 154 151 159 163 162 159 157 151 152 159 163 165 170 169 166 163 168 167
201 195 193 185 197 207 203 197 204 212 220 220 216 216 197 184 177 171 166 164 165 164 162 160 158 154 154 152 156 163 163 158 163 164 160 165 174 169
201 209 210 208 209 213 211 207 207 208 208 206 210 205 195 184 176 172 171 170 167 165 166 164 157 146 142 144 160 163 165 159 159 164 170 163 169 166
211 221 216 216 220 222 220 216 214 208 202 199 201 199 191 182 176 173 172 170 168 166 165 164 165 163 164 164 173 174 165 156 155 166 185 176 167 163
224 228 221 217 218 221 222 222 218 209 200 198 196 191 185 183 179 175 174 172 166 162 162 169 176 176 172 163 153 164 170 158 159 171 187 171 126 141
220 226 227 225 220 216 219 219 211 205 197 193 191 184 182 181 177 175 174 169 163 164 168 175 181 173 152 135 144 148 143 155 166 171 177 163 152 155
239 231 227 227 223 218 214 213 210 199 190 187 184 180 181 180 175 172 170 168 167 165 164 164 164 171 162 157 160 156 146 138 140 156 163 164 164 181
242 237 230 225 220 212 209 207 202 193 184 182 178 177 175 173 173 170 169 166 163 160 157 159 164 170 169 162 157 157 157 158 160 159 159 153 135 128
Height
1466 1467 1468 1470 1472 1475 1477 1480 1483 1484 1487 1489 1491 1494 1495 1497 1499 1501 1502 1504 1505 1506 1508 1510 1512 1514 1516 1518 1521 1523 1525 1527 1529 1531 1533 1534 1536 1538
1461 1462 1463 1465 1467 1469 1471 1474 1477 1480 1482 1484 1487 1489 1492 1494 1496 1498 1499 1501 1502 1503 1505 1506 1508 1510 1512 1514 1516 1518 1520 1522 1524 1526 1527 1529 1530 1532
1456 1457 1458 1459 1461 1463 1466 1468 1471 1474 1477 1479 1483 1486 1488 1490 1493 1495 1496 1497 1499 1500 1501 1503 1505 1506 1508 1510 1512 1514 1516 1517 1519 1520 1522 1523 1524 1526
1451 1452 1454 1455 1456 1458 1460 1462 1465 1468 1471 1474 1478 1481 1484 1487 1490 1492 1493 1494 1496 1497 1499 1500 1502 1503 1505 1507 1508 1510 1511 1513 1514 1515 1516 1517 1519 1519
1445 1447 1448 1450 1451 1452 1454 1457 1459 1462 1465 1469 1472 1476 1480 1483 1486 1489 1490 1492 1494 1495 1496 1498 1499 1501 1502 1504 1505 1506 1507 1509 1510 1511 1512 1513 1513 1514
1438 1440 1442 1444 1445 1448 1449 1451 1453 1456 1459 1463 1466 1470 1474 1477 1481 1484 1487 1489 1491 1493 1494 1495 1497 1498 1500 1501 1502 1503 1504 1505 1506 1507 1508 1509 1509 1510
1431 1433 1436 1438 1440 1442 1444 1446 1448 1450 1453 1456 1460 1464 1467 1471 1475 1478 1482 1485 1488 1491 1492 1494 1495 1496 1497 1499 1500 1501 1502 1503 1504 1505 1505 1506 1506 1507
1423 1426 1429 1432 1434 1436 1439 1441 1443 1445 1448 1450 1453 1457 1460 1465 1470 1474 1477 1481 1484 1488 1490 1492 1494 1495 1496 1497 1499 1499 1500 1501 1502 1503 1504 1504 1504 1505
1416 1419 1423 1426 1428 1430 1433 1435 1437 1440 1443 1445 1448 1451 1455 1459 1464 1468 1471 1476 1480 1483 1487 1490 1492 1493 1495 1496 1498 1499 1500 1500 1501 1502 1503 1503 1504 1505
1408 1412 1416 1419 1422 1425 1427 1430 1432 1434 1437 1440 1443 1446 1450 1454 1459 1463 1467 1473 1477 1481 1484 1487 1489 1491 1493 1495 1497 1498 1499 1500 1501 1502 1503 1503 1504 1504
1401 1406 1409 1412 1416 1420 1422 1425 1427 1430 1433 1435 1438 1442 1445 1449 1453 1458 1463 1467 1471 1475 1480 1483 1486 1489 1491 1493 1495 1497 1498 1499 1501 1502 1503 1503 1504 1505
1394 1399 1403 1406 1410 1414 1417 1420 1423 1426 1429 1431 1433 1436 1440 1443 1447 1451 1456 1461 1464 1470 1474 1478 1481 1485 1489 1491 1493 1495 1497 1499 1500 1502 1503 1504 1505 1506
1388 1393 1397 1401 1405 1408 1412 1415 1418 1421 1424 1426 1429 1431 1435 1438 1442 1446 1451 1455 1459 1463 1468 1473 1477 1481 1484 1487 1490 1493 1496 1498 1500 1501 1503 1504 1505 1506
1384 1388 1392 1395 1399 1403 1407 1411 1414 1417 1420 1422 1424 1427 1430 1433 1437 1441 1446 1450 1456 1460 1464 1468 1472 1476 1480 1483 1486 1490 1493 1496 1499 1500 1502 1504 1505 1507
1379 1383 1387 1391 1395 1399 1402 1406 1409 1412 1415 1417 1420 1422 1425 1429 1433 1437 1442 1446 1452 1456 1461 1465 1470 1474 1477 1480 1483 1486 1490 1494 1497 1499 1501 1503 1505 1507
1376 1380 1384 1387 1391 1394 1398 1401 1404 1407 1410 1413 1415 1418 1422 1424 1427 1431 1436 1441 1446 1452 1457 1462 1467 1472 1475 1479 1481 1484 1488 1491 1495 1498 1501 1503 1505 1507
1373 1377 1381 1384 1387 1390 1393 1396 1399 1402 1405 1408 1411 1414 1417 1419 1422 1427 1431 1436 1441 1446 1452 1458 1464 1469 1474 1477 1480 1483 1486 1490 1493 1497 1500 1502 1504 1506
1371 1373 1377 1380 1383 1386 1389 1392 1394 1397 1399 1402 1406 1409 1412 1414 1418 1422 1427 1432 1437 1442 1448 1453 1460 1466 1472 1477 1480 1481 1485 1489 1492 1496 1499 1502 1504 1506
1367 1370 1372 1375 1378 1381 1384 1387 1389 1392 1395 1398 1400 1403 1407 1410 1413 1417 1422 1427 1433 1438 1444 1450 1455 1461 1466 1472 1477 1481 1483 1487 1491 1494 1498 1501 1503 1506
1363 1366 1368 1371 1373 1376 1379 1381 1384 1387 1390 1392 1395 1398 1401 1405 1408 1413 1418 1423 1428 1435 1441 1447 1452 1458 1463 1468 1473 1478 1482 1485 1489 1493 1497 1501 1503 1505
1360 1362 1364 1366 1369 1371 1374 1376 1379 1382 1384 1387 1390 1393 1396 1400 1404 1409 1414 1420 1425 1431 1437 1444 1450 1458 1464 1468 1472 1476 1481 1485 1488 1491 1495 1499 1501 1504
1356 1358 1360 1362 1364 1367 1369 1372 1374 1376 1379 1382 1386 1389 1392 1396 1401 1406 1411 1416 1422 1429 1436 1443 1450 1457 1462 1465 1469 1474 1478 1483 1487 1491 1495 1498 1500 1501
1353 1354 1356 1357 1360 1362 1365 1368 1370 1373 1375 1378 1382 1385 1389 1393 1398 1403 1409 1415 1421 1428 1435 1442 1449 1455 1459 1464 1468 1472 1476 1481 1485 1489 1493 1496 1499 1501